Wind_Speed
19 19 19 20 19 19 19 20 18 15 14 14 15 16 15 14 16 18 18 18 17 15 14 13 13 13 12 11 9 8 8 8 7 7 8 8 8 7 6 5 6 6 6 7 7 7 8 8 9 9 9 9 9 8 8 8 7 6 5 6 6 6 6 6 7 7 8 7 7 7 7 8 8 8 9 9 9 8 8 9 10 11 12 12 13
20 20 20 20 20 21 21 21 19 15 13 14 15 16 16 14 15 18 18 19 18 15 13 13 13 13 13 11 9 8 8 7 7 7 8 8 8 7 6 5 6 6 6 6 6 6 6 6 7 7 7 7 7 7 6 6 5 4 4 4 4 5 5 6 6 7 6 6 6 6 6 7 7 6 7 7 8 8 8 9 10 11 12 13 14
19 20 21 21 22 22 21 20 18 15 13 14 15 17 16 13 14 17 18 18 19 17 14 12 13 13 13 11 9 8 7 7 7 7 7 8 8 7 7 6 6 6 6 6 6 5 5 4 4 5 6 6 6 6 5 5 4 4 3 3 4 4 5 5 5 5 5 5 5 5 6 5 5 5 6 7 7 8 8 9 10 11 12 13 14
18 19 20 20 22 22 21 20 17 14 13 14 16 17 16 13 13 15 16 17 18 18 15 13 13 13 11 9 8 7 7 7 7 8 7 7 7 7 7 7 7 7 6 6 6 5 4 4 4 4 5 5 5 4 4 4 4 4 4 4 4 4 5 5 4 4 4 5 5 5 5 5 5 5 6 7 7 8 9 9 10 11 12 13 14
17 18 18 19 20 20 19 18 16 14 13 15 16 16 16 13 12 14 15 16 18 18 16 14 13 12 10 8 8 7 7 7 8 8 8 7 6 7 7 7 7 7 6 6 6 5 4 4 4 4 4 4 4 4 4 4 4 4 4 4 4 4 3 3 3 4 4 5 5 5 5 5 5 5 6 7 8 9 9 9 10 11 12 13 14
17 18 18 18 18 17 16 15 15 14 14 16 17 17 16 14 12 13 15 15 17 18 17 15 13 12 9 8 8 8 7 7 7 8 8 7 6 6 6 6 7 7 6 6 5 5 4 4 4 4 4 4 4 4 4 4 4 4 4 3 2 2 1 1 2 3 4 4 4 4 4 4 4 5 6 7 8 9 10 10 10 11 12 13 14
17 17 18 18 17 16 15 15 15 14 15 17 17 16 16 14 12 12 14 15 16 17 17 15 14 11 9 8 9 8 7 7 7 8 8 7 7 6 6 6 7 6 6 6 5 5 4 4 4 4 5 5 4 4 3 3 3 3 3 2 1 1 1 1 2 2 3 3 3 3 3 4 4 4 5 6 8 9 9 10 10 11 12 12 12
16 17 18 18 18 17 15 14 15 15 16 17 17 16 15 13 11 12 13 14 16 17 17 16 14 11 9 9 9 8 7 7 7 8 8 7 7 6 6 6 6 6 5 6 5 5 5 5 5 5 5 5 4 3 3 4 4 3 3 3 2 2 1 1 1 1 2 2 2 2 3 3 3 4 5 6 7 8 8 9 9 10 10 11 11
16 16 17 17 17 16 14 14 15 15 16 17 16 15 14 12 11 11 12 13 14 16 17 15 13 11 9 9 9 8 8 8 8 8 8 7 7 6 6 6 6 5 5 6 6 5 5 5 5 5 4 5 4 4 5 5 5 5 4 3 3 2 2 1 1 1 2 2 2 2 2 2 2 3 4 5 6 7 7 8 8 9 9 9 9
17 15 14 15 17 16 15 14 15 15 16 17 16 15 13 12 11 10 11 12 13 15 16 15 13 11 9 9 9 8 8 8 8 8 8 7 7 6 6 6 6 6 6 6 6 6 6 6 5 5 5 5 5 5 5 5 5 5 4 4 3 2 1 1 0 1 2 2 2 2 2 2 2 3 4 5 5 6 6 7 7 8 8 8 8
17 15 13 14 16 16 15 15 16 16 17 17 16 15 13 12 10 10 10 10 11 13 15 15 13 11 10 10 9 8 9 9 9 9 9 8 7 6 6 6 7 7 7 7 7 7 7 6 6 6 6 7 7 7 6 5 4 4 3 3 2 1 1 0 1 1 2 2 2 3 3 3 3 4 4 5 5 6 6 6 7 7 8 8 7
15 15 14 14 14 15 17 17 17 18 17 16 15 15 15 13 11 10 10 10 10 12 14 15 14 11 10 10 9 8 9 9 9 9 9 9 7 6 6 6 7 8 8 8 8 8 7 7 7 7 7 8 8 8 7 6 5 4 3 3 2 2 2 2 2 2 2 2 3 3 4 4 5 5 5 5 5 6 6 6 6 7 8 7 6
15 16 16 15 15 15 17 19 19 18 17 16 15 16 16 14 12 11 11 9 9 11 13 14 14 12 11 10 9 8 9 9 9 9 9 9 8 7 7 7 8 8 9 8 8 8 8 7 8 8 8 9 9 9 8 7 6 5 5 4 4 3 3 3 3 3 3 3 3 4 4 5 6 6 6 6 6 6 6 6 6 6 7 7 6
15 17 19 19 18 18 19 19 19 19 18 17 16 16 16 15 14 13 12 10 9 10 12 13 14 13 11 11 10 9 8 9 9 9 9 9 8 8 7 8 8 9 9 9 8 8 9 8 9 9 9 9 9 9 8 8 7 7 6 5 5 4 4 4 4 4 4 4 4 4 4 5 6 6 7 6 6 6 5 5 5 5 5 5 5
14 16 19 21 22 21 20 20 20 20 20 18 17 17 17 16 16 15 14 12 10 9 11 13 13 13 12 11 11 9 8 8 9 9 9 9 9 9 9 9 9 9 9 9 9 9 9 9 10 10 10 10 10 9 9 8 8 7 6 5 5 5 5 5 5 4 4 4 4 4 5 5 6 6 7 7 6 6 5 5 4 4 4 4 4
14 15 18 20 23 24 23 22 21 21 21 21 20 19 19 18 18 17 16 15 12 10 11 12 13 12 12 11 11 10 9 8 8 9 9 9 9 10 10 10 10 10 9 9 9 9 10 10 11 11 11 11 10 10 9 9 8 8 7 6 5 5 5 5 5 5 5 5 5 5 5 6 6 6 6 6 6 6 5 5 4 4 4 3 3
14 15 16 18 21 24 26 26 24 23 24 24 23 22 21 20 20 19 19 17 15 13 12 13 13 12 11 11 11 11 10 8 8 9 9 9 10 10 11 11 11 11 10 9 9 10 10 11 11 11 12 12 11 10 10 9 9 8 8 7 6 6 5 6 5 5 5 5 5 5 6 6 6 6 6 6 5 5 5 5 4 4 4 3 3
14 14 15 16 18 21 24 27 28 28 27 26 27 27 25 23 23 21 21 19 17 16 16 14 13 12 11 11 10 11 11 10 8 8 9 9 10 11 11 11 12 12 11 10 10 10 11 11 11 12 12 13 12 11 10 10 9 9 8 8 7 7 6 6 6 5 5 5 5 5 5 5 5 6 6 5 5 4 5 5 4 4 4 4 3
16 17 17 17 19 20 22 25 28 30 29 29 30 29 24 23 22 21 22 22 20 19 18 16 14 14 12 11 10 10 11 11 10 9 9 9 10 11 12 12 12 12 12 11 10 10 11 11 12 12 13 13 13 12 11 11 10 9 9 9 8 7 7 7 6 5 5 6 5 5 5 5 5 5 5 5 4 4 4 4 4 3 4 4 4
19 20 20 20 20 21 22 24 26 29 30 31 32 30 25 23 21 18 20 24 23 22 22 19 16 15 14 12 11 10 10 11 11 10 9 9 10 11 12 12 12 12 12 12 11 11 11 12 13 13 13 13 14 13 12 11 11 10 9 9 9 8 8 7 7 6 6 6 6 6 5 5 5 5 5 5 5 4 4 4 4 3 3 3 3
21 21 22 22 22 21 21 22 24 28 30 31 32 31 29 27 24 21 22 25 24 24 25 23 20 18 17 15 12 11 10 10 11 11 10 10 10 11 12 12 13 13 13 12 12 12 12 12 13 13 14 14 14 14 13 12 11 10 10 9 9 9 9 8 7 6 6 7 6 6 5 5 5 5 5 5 5 5 4 4 4 3 3 3 3
23 23 23 23 23 22 21 21 22 25 29 30 31 30 29 27 26 25 26 28 27 26 26 26 23 21 19 17 14 13 12 10 10 11 12 11 11 11 12 12 12 13 13 13 12 12 12 13 13 13 14 14 14 14 13 12 11 10 10 10 10 9 9 9 8 6 6 7 7 7 6 6 6 6 6 5 5 5 5 5 4 4 4 3 3
24 24 24 23 23 23 22 22 22 24 27 29 30 30 29 28 27 27 28 29 29 28 27 27 25 23 21 20 17 15 14 12 11 11 12 12 12 12 12 12 12 13 13 13 13 13 12 12 12 13 13 14 14 14 14 13 12 10 10 10 10 9 9 9 8 7 6 6 7 7 7 7 6 7 7 6 5 5 5 5 4 4 4 4 3
24 25 25 25 24 23 23 23 23 24 26 29 30 31 31 31 30 30 29 29 29 27 25 26 27 26 23 21 19 18 17 15 13 12 12 13 13 13 13 12 12 13 13 14 14 13 12 12 12 12 13 14 14 14 14 13 12 11 10 10 10 10 9 9 9 8 7 6 6 7 7 7 7 7 7 6 6 5 5 5 5 4 4 4 4
26 26 25 25 24 24 23 24 24 25 26 28 30 30 30 31 32 31 30 29 28 27 27 26 27 27 25 23 21 20 19 18 16 14 13 13 13 13 14 14 13 13 14 14 14 14 13 12 12 12 12 13 13 13 14 13 12 11 10 10 10 10 10 10 9 8 7 7 6 6 7 7 7 7 7 7 6 6 6 6 6 5 4 4 4
27 27 27 26 25 24 23 24 24 25 27 28 28 28 27 27 28 28 29 29 28 27 29 27 23 22 24 24 23 22 22 21 19 17 14 13 13 14 14 15 15 14 14 14 14 14 14 13 13 12 12 12 12 13 13 13 12 12 12 12 11 10 10 10 9 8 7 7 7 7 6 7 7 7 7 7 7 6 6 6 6 6 5 4 4
28 29 29 29 27 25 24 23 23 25 27 28 28 27 26 25 24 25 27 28 27 27 28 28 24 21 22 24 24 24 23 22 21 20 17 13 13 14 15 16 16 16 16 15 15 15 15 14 13 13 13 12 12 13 13 14 13 13 13 13 11 10 10 10 9 8 8 8 8 7 7 7 7 7 8 7 7 7 7 7 6 6 5 5 5
30 31 31 30 30 28 27 25 25 25 26 28 28 28 27 26 25 24 26 27 27 26 26 26 24 22 22 23 25 25 24 24 22 21 18 16 15 16 17 17 17 17 17 18 17 16 15 14 14 14 14 13 14 14 14 14 14 14 14 13 12 11 10 10 10 9 8 8 9 8 7 7 7 7 8 8 8 7 7 7 7 6 6 5 5
31 32 33 33 32 31 30 29 28 28 28 28 28 28 28 28 28 26 26 28 28 27 26 25 25 24 23 26 28 28 27 25 23 21 20 20 20 20 19 19 20 20 20 20 19 17 16 14 14 14 15 15 14 14 14 15 15 14 14 14 13 11 11 10 10 10 10 9 9 9 8 7 7 7 8 8 8 7 7 7 7 7 6 6 6
29 29 32 35 35 33 32 32 32 32 32 31 29 28 27 28 28 27 27 27 27 28 28 27 26 26 26 27 29 28 25 22 22 23 25 25 24 22 20 21 22 23 23 22 20 18 16 15 14 14 15 15 15 15 15 15 15 15 14 14 13 12 11 11 11 11 11 10 9 9 8 7 7 8 8 8 8 8 7 8 8 7 7 7 6
28 27 27 31 34 35 35 34 34 36 34 31 30 30 29 28 28 27 26 26 26 27 27 27 27 28 28 28 28 27 25 23 23 25 27 27 26 24 21 21 23 24 24 23 21 19 17 16 15 15 15 16 16 16 15 15 15 15 14 14 13 13 12 12 12 12 12 10 9 9 9 8 7 7 8 8 8 8 8 8 8 8 8 8 7
28 27 25 26 28 33 35 35 36 38 36 32 30 31 30 30 30 28 27 28 28 27 26 27 28 28 28 27 27 27 27 27 26 27 28 28 28 25 22 21 22 23 24 24 23 21 19 17 16 16 16 16 16 16 16 16 15 15 14 14 14 14 14 14 13 12 11 10 9 9 9 8 7 7 8 8 8 8 8 8 8 8 9 9 8
30 29 28 26 25 27 31 32 34 36 36 35 35 33 31 31 32 32 30 30 30 30 28 27 27 27 27 26 27 28 27 26 26 27 29 30 29 28 25 24 23 23 24 25 23 21 19 18 16 16 16 16 17 17 17 16 15 15 14 14 14 15 15 14 12 11 11 11 10 9 9 8 7 8 8 8 9 9 8 8 8 9 9 9 9
32 31 31 29 27 26 27 29 31 33 33 35 36 36 35 33 31 32 34 34 32 32 31 29 27 26 26 26 26 27 28 27 26 26 28 30 30 30 28 27 26 25 25 25 24 22 20 18 17 17 17 17 18 18 17 16 15 15 15 15 16 16 15 13 12 11 12 11 10 9 9 8 8 8 9 8 8 9 9 9 9 9 9 9 10
32 32 31 31 30 28 27 27 28 30 31 32 32 33 35 35 30 27 31 36 36 34 33 32 29 27 26 26 26 27 28 28 27 27 28 30 32 33 32 30 28 26 24 24 23 22 20 18 17 17 17 18 18 18 18 17 16 16 15 16 17 17 15 13 13 13 12 11 10 9 9 9 8 8 8 8 8 9 10 10 10 9 10 10 10
32 32 31 32 32 31 29 27 27 27 28 29 29 30 32 33 32 28 28 32 37 38 36 35 34 32 30 29 30 30 30 29 29 28 28 30 33 34 34 32 29 26 24 23 22 21 21 20 19 18 18 18 18 19 19 18 17 16 17 17 18 18 16 14 14 14 13 11 10 10 9 8 8 8 8 8 9 9 10 10 10 10 10 10 11
32 32 31 31 32 32 31 29 28 27 27 27 28 28 28 30 30 29 29 29 33 40 41 37 34 35 35 33 32 32 33 33 32 30 30 32 34 36 36 34 31 28 25 23 22 22 22 21 20 20 20 20 20 20 20 19 18 18 18 18 19 18 17 16 16 15 13 12 11 10 9 8 8 7 8 8 8 9 10 10 10 11 11 11 11
32 32 31 31 31 32 32 31 29 29 28 27 27 27 27 27 28 28 29 29 28 34 41 39 33 32 35 36 35 35 37 37 36 34 33 34 35 36 37 35 33 30 26 23 22 21 22 23 22 22 21 22 22 22 21 21 20 19 19 19 19 19 19 18 17 15 14 12 11 10 9 9 8 7 8 8 8 8 9 10 11 12 12 12 12
32 32 31 30 30 31 33 33 32 31 30 29 27 27 26 26 26 26 27 28 27 28 35 40 37 34 34 36 38 39 39 39 38 36 36 35 35 35 36 36 34 30 27 24 23 21 21 22 24 24 23 23 23 23 23 22 22 21 21 20 21 21 20 19 18 16 15 13 13 12 11 10 9 8 8 7 7 8 9 10 11 12 12 13 13
34 34 33 32 30 30 31 33 34 33 32 31 29 28 27 27 26 25 26 27 27 27 30 35 36 34 33 35 38 40 40 40 40 40 39 38 36 35 35 35 34 31 28 25 23 21 19 21 23 24 25 24 24 23 23 23 23 23 23 22 22 22 22 21 19 18 17 16 15 15 13 12 11 9 8 8 8 8 9 10 10 12 13 14 13
36 36 36 34 31 30 31 32 33 33 33 32 31 30 29 28 27 26 25 26 26 27 28 30 32 31 30 31 35 40 41 41 42 42 42 41 39 37 36 35 34 33 30 27 24 22 20 21 23 24 24 25 25 24 24 24 24 24 24 23 23 23 23 23 22 21 19 18 17 17 16 14 13 11 9 9 10 10 10 10 10 11 12 13 13
38 37 37 36 34 32 31 32 33 33 33 32 31 30 30 29 28 27 27 27 26 26 27 28 29 29 28 28 31 38 44 46 44 43 44 43 42 40 38 36 35 34 33 29 26 24 23 22 23 25 25 26 26 26 25 25 24 24 24 24 23 23 23 23 23 23 22 21 20 18 18 17 15 13 13 12 12 11 11 10 10 11 12 12 12
41 40 39 38 37 34 33 33 33 33 33 32 31 30 30 30 30 29 28 27 26 27 27 27 27 26 26 27 29 33 39 46 49 47 44 44 44 43 41 38 35 34 34 32 30 28 27 26 25 26 27 27 28 28 28 26 25 25 25 25 24 24 23 23 23 24 24 23 21 20 20 19 18 17 16 15 14 13 13 12 11 11 12 12 12
42 42 40 39 38 36 35 34 34 33 33 33 32 31 30 29 30 30 30 29 29 29 28 28 27 25 26 27 28 28 31 38 47 50 48 46 45 44 43 42 38 36 35 35 34 32 31 30 29 28 28 29 29 30 30 30 29 28 28 27 26 26 25 24 24 24 24 24 24 23 22 21 20 19 19 18 17 16 16 15 14 13 13 13 13
41 41 41 40 38 37 36 35 34 34 34 33 31 29 29 28 28 28 30 31 31 29 27 25 24 24 24 26 28 28 27 29 35 42 47 49 48 46 45 44 42 40 38 37 37 36 34 33 32 32 31 30 31 31 31 31 31 31 30 30 29 28 27 26 25 24 25 27 27 26 25 24 24 22 21 20 20 19 18 18 17 17 16 15 14
40 40 40 39 38 36 35 35 34 34 34 33 31 30 31 31 30 30 30 30 30 30 28 26 24 25 26 27 27 29 29 28 28 31 36 42 47 50 49 48 46 44 41 39 39 39 37 35 35 36 34 33 32 32 31 31 31 31 31 31 30 29 29 28 28 28 28 29 29 29 29 28 27 26 24 23 23 22 22 22 21 20 19 18 18
40 39 39 39 38 37 35 35 35 34 34 34 34 34 34 34 32 32 31 30 30 30 29 27 27 29 30 27 25 26 27 27 27 28 29 30 35 43 50 52 49 46 45 43 41 41 40 38 37 37 37 36 35 34 34 33 32 31 31 31 31 31 31 31 30 30 30 30 31 31 32 32 31 30 28 27 25 25 24 24 24 23 23 22 22
40 39 38 38 38 36 34 33 34 34 34 34 35 35 35 34 33 33 32 31 31 30 28 26 28 30 30 28 26 24 23 24 26 28 28 27 26 31 39 49 51 48 46 46 45 42 41 41 40 38 38 37 37 36 36 36 35 34 33 32 31 31 31 32 32 32 32 32 33 33 33 34 34 33 32 31 29 27 26 26 26 25 25 25 25
38 38 37 37 37 35 33 32 32 33 33 34 34 34 34 33 33 32 31 30 30 31 30 28 29 30 29 28 28 28 26 26 26 26 26 28 27 26 30 41 51 51 47 47 48 46 43 43 42 41 40 38 37 37 37 37 36 37 36 35 34 33 33 33 33 33 33 34 34 35 35 36 36 36 35 34 33 30 29 28 27 27 27 28 28
35 36 35 35 35 33 31 29 30 32 33 33 33 33 33 32 32 32 32 31 30 31 31 31 31 30 29 29 29 29 29 28 27 26 26 28 28 26 26 31 44 51 50 46 46 47 45 44 44 44 43 41 40 39 39 38 37 37 38 37 36 36 36 35 34 34 35 35 36 36 37 37 37 37 37 37 36 35 33 31 30 30 29 29 29
32 33 33 32 32 30 27 26 27 30 31 33 33 32 32 31 31 31 32 33 32 31 31 31 31 32 31 30 29 30 30 30 28 28 28 28 27 27 25 24 31 43 49 48 46 46 46 45 44 44 44 44 43 41 41 40 40 39 39 38 38 38 39 39 38 37 37 37 37 38 38 38 39 39 39 39 39 38 36 34 33 32 31 30 30
Wind_Direction
269 270 271 271 271 273 275 277 278 281 288 297 304 310 313 318 327 332 337 341 340 334 327 319 310 302 295 291 292 296 293 291 297 302 303 306 313 324 330 321 308 299 293 288 282 276 271 268 269 270 273 274 274 274 277 282 285 278 266 259 259 258 255 261 268 270 273 278 285 295 301 307 312 314 313 312 316 328 340 345 348 345 343 342 340
272 272 270 269 269 270 271 275 275 271 277 288 297 304 307 313 324 329 333 338 341 337 326 313 304 297 293 293 295 294 290 289 296 300 302 308 315 322 325 319 312 306 303 300 296 292 285 277 272 270 270 272 274 276 277 281 285 280 267 254 249 251 255 258 262 266 274 285 297 307 315 320 324 323 316 314 322 336 345 348 347 344 343 343 343
276 274 272 269 268 269 272 275 273 266 270 281 290 299 303 308 322 328 330 335 337 335 325 311 301 296 294 297 297 291 286 286 291 295 299 306 313 316 314 309 306 302 299 299 298 299 298 290 280 273 270 272 273 274 274 274 273 268 260 252 247 250 254 256 262 273 288 306 318 328 334 338 339 331 320 321 330 341 350 351 348 345 345 346 346
281 279 275 270 268 270 272 273 272 266 267 275 283 295 300 303 316 326 329 330 332 331 325 312 302 297 295 296 291 281 278 279 282 287 293 302 308 309 308 305 302 297 293 295 295 296 294 289 282 275 270 270 268 266 263 259 259 255 249 248 250 253 257 267 287 306 321 335 346 352 354 353 346 335 326 327 334 345 353 352 349 348 349 349 350
283 281 279 275 271 271 270 269 268 263 262 270 278 289 297 298 309 322 327 328 328 329 325 314 304 299 297 293 282 270 267 271 277 284 291 301 305 303 303 300 297 294 291 290 289 287 286 280 273 267 262 261 259 259 255 249 246 243 240 241 244 252 266 292 323 342 352 360 4 3 360 354 345 336 331 332 339 347 351 351 350 350 351 351 351
282 281 279 276 272 267 266 266 263 258 259 266 274 285 293 294 302 317 324 325 325 327 325 316 307 304 302 291 278 267 263 267 276 284 291 300 304 302 300 296 291 289 288 287 284 281 279 272 265 262 259 257 253 249 247 243 236 228 224 226 230 247 298 353 10 15 14 11 9 6 360 353 345 338 335 335 340 344 346 348 349 351 353 351 351
281 280 277 273 267 260 260 264 260 255 258 264 272 284 290 289 296 311 320 323 324 326 326 318 311 310 305 289 275 267 265 269 275 282 288 295 299 299 298 293 288 285 284 282 280 277 271 264 259 260 261 261 253 239 227 218 209 195 186 181 172 151 87 61 59 51 34 19 14 9 2 354 346 339 334 334 336 339 342 344 346 349 351 350 352
280 278 276 271 264 259 260 263 258 255 258 264 273 283 284 282 291 305 315 321 322 324 326 321 314 313 305 287 277 271 270 272 275 281 286 290 292 294 295 292 286 283 282 278 276 273 269 265 262 260 259 256 245 216 189 178 174 169 164 159 154 146 137 118 101 91 70 47 30 19 10 357 345 334 327 327 331 332 335 338 339 345 347 347 352
274 273 274 269 261 260 262 261 258 260 263 269 276 280 277 276 286 298 310 319 321 322 326 323 316 312 301 285 279 275 275 278 279 281 284 286 288 289 292 292 288 284 279 276 274 270 269 268 263 256 245 234 221 197 177 170 166 166 166 165 164 158 149 140 127 91 74 63 42 31 17 356 339 322 318 324 327 326 329 331 334 341 345 348 354
268 267 269 264 257 255 258 259 260 265 268 271 274 272 269 270 279 291 303 314 319 319 324 325 317 308 295 283 279 277 278 280 281 282 281 280 281 282 285 288 286 284 282 278 275 271 269 266 254 238 223 213 207 197 186 177 171 169 169 170 170 162 150 137 95 40 42 36 28 25 19 358 334 316 317 324 325 322 322 324 330 340 347 350 356
267 261 261 260 257 256 259 260 263 267 270 272 270 265 261 262 271 283 295 309 316 316 321 325 319 306 291 281 277 277 280 279 278 279 278 275 273 272 274 278 280 281 282 279 279 276 270 259 240 221 212 207 203 200 196 192 189 187 184 184 188 184 198 266 312 336 355 3 3 5 3 352 333 325 330 330 321 317 319 323 332 343 349 350 352
264 255 253 255 259 262 262 261 262 265 270 273 267 258 254 255 262 273 283 299 312 313 317 322 320 308 291 281 277 274 276 276 275 274 273 271 269 266 265 269 274 279 281 281 281 278 267 250 232 218 210 207 205 203 201 202 206 215 222 228 233 241 254 269 288 306 319 329 338 348 348 341 334 332 334 330 319 316 320 326 335 347 352 349 345
259 248 243 244 250 256 259 262 263 263 266 269 264 256 253 254 258 264 274 288 304 308 311 317 319 312 294 281 276 271 271 273 271 269 269 268 266 264 263 265 270 277 281 281 280 274 263 248 233 223 216 212 209 208 207 208 211 221 231 239 248 256 263 273 284 294 302 310 321 331 332 328 329 330 330 323 317 319 325 328 335 348 354 351 347
261 249 243 243 245 248 253 260 262 262 262 264 262 258 255 253 253 258 266 276 289 299 304 309 315 314 300 283 273 268 267 269 269 267 265 266 265 262 261 263 267 275 280 280 276 268 258 249 238 230 224 219 215 213 215 216 217 220 225 234 247 257 264 270 276 284 292 298 305 314 318 318 319 320 320 317 317 321 324 326 337 348 351 355 356
269 257 249 247 247 249 253 256 257 258 260 261 260 259 257 254 253 256 260 266 274 288 296 301 309 313 306 290 277 269 265 266 269 268 264 263 263 261 260 260 263 270 277 277 272 262 254 250 244 237 232 227 223 220 222 224 223 224 225 229 240 254 263 269 274 280 287 292 299 305 307 309 311 311 311 314 319 324 324 325 336 342 346 4 12
273 268 262 256 254 253 253 251 250 252 256 258 258 257 256 254 252 252 256 260 266 274 284 291 298 307 309 297 282 272 267 264 268 269 266 263 260 258 259 260 261 264 270 272 268 259 253 251 249 244 238 235 232 229 228 229 228 229 231 231 236 248 261 270 275 282 288 292 297 302 301 301 303 304 307 312 318 323 321 320 327 336 346 9 22
272 275 274 269 264 259 254 250 247 246 250 253 254 256 257 255 252 251 255 258 260 265 272 279 286 295 303 302 290 277 269 265 266 268 267 264 259 257 257 259 261 263 265 267 264 258 253 253 252 251 246 242 239 237 235 234 232 232 236 238 241 248 257 267 273 279 284 289 293 295 296 297 297 298 303 308 313 316 315 317 326 338 347 358 16
272 272 273 272 269 264 257 251 247 245 246 248 250 252 250 246 244 244 248 252 255 257 260 266 275 282 290 296 294 283 272 267 266 266 268 266 260 256 255 256 259 263 264 265 263 257 254 252 252 253 252 249 247 244 242 241 239 238 240 243 247 253 260 265 270 275 280 284 285 285 286 290 293 294 296 302 307 309 311 319 328 337 343 348 360
270 269 269 271 271 269 263 254 249 246 245 245 249 251 250 248 245 239 239 244 250 253 255 257 262 269 277 284 289 285 275 269 266 264 265 266 263 257 255 254 256 260 263 265 265 261 256 253 252 252 253 253 252 250 248 247 245 244 245 249 252 257 263 267 269 274 280 281 279 278 282 287 291 293 295 299 305 308 310 317 322 325 336 339 342
267 266 267 268 270 272 269 261 253 250 247 246 249 255 261 264 263 256 250 248 248 250 253 254 254 258 264 271 277 280 275 267 264 264 262 263 265 261 257 255 254 256 260 263 266 265 260 255 253 251 251 251 251 251 251 251 250 248 249 253 258 262 266 268 270 274 280 282 280 280 284 289 291 293 296 298 303 306 308 309 310 315 323 324 325
267 263 262 262 264 268 269 266 259 254 251 248 249 254 260 263 265 268 266 261 258 256 254 251 250 251 254 259 264 269 272 266 260 260 260 260 262 263 261 258 255 254 256 260 263 266 264 261 256 253 252 251 252 251 250 250 252 252 253 256 261 266 269 269 269 271 276 281 284 285 286 288 290 293 293 294 299 306 309 310 315 320 315 307 306
272 267 262 258 257 259 263 264 261 257 254 252 251 253 257 260 263 265 267 266 267 265 256 249 248 248 248 252 256 258 263 264 257 254 255 256 259 261 262 262 259 255 255 256 260 264 266 266 262 258 256 255 256 256 254 251 250 251 254 257 261 266 272 273 272 270 273 281 287 290 291 290 291 293 292 292 297 302 305 306 309 308 301 297 293
277 275 271 264 256 254 255 258 258 256 253 251 252 254 257 260 261 262 264 265 265 262 253 247 249 250 247 248 251 253 256 259 255 251 250 251 255 258 260 262 262 259 255 254 256 261 265 266 265 263 261 259 259 259 259 257 254 252 254 259 261 264 268 271 271 268 267 274 281 286 289 288 291 293 290 288 290 291 293 293 292 291 289 288 287
276 277 276 273 265 257 252 252 254 254 251 249 251 255 259 263 263 261 260 261 262 262 256 248 247 249 249 248 247 248 251 254 254 251 248 247 248 253 258 261 261 260 257 254 253 256 261 266 267 265 264 262 262 262 262 261 260 258 258 261 264 267 267 267 268 265 262 265 270 275 278 279 282 285 281 278 278 280 283 285 283 280 280 277 276
271 273 274 274 271 263 256 252 250 251 251 251 253 256 259 263 266 263 254 252 257 265 266 259 247 242 245 248 247 245 248 250 252 251 249 247 245 246 252 257 259 259 258 256 255 254 256 260 264 265 266 265 264 263 264 264 263 262 261 260 261 265 267 267 268 267 264 264 263 265 268 269 271 273 271 269 271 272 274 276 272 269 267 265 268
269 269 269 270 270 267 263 257 252 249 249 250 253 256 257 262 267 262 250 246 252 262 268 270 261 248 245 245 244 243 245 247 250 252 250 249 246 243 245 250 255 258 258 257 256 255 254 256 259 263 266 267 265 263 261 262 261 260 260 259 259 261 263 265 266 267 266 266 262 261 264 264 265 266 264 262 263 264 265 266 263 261 258 255 256
267 266 267 266 266 264 263 263 260 254 251 249 249 250 251 254 258 254 247 248 256 262 265 269 268 262 253 244 239 240 242 244 248 252 252 251 248 243 241 243 248 254 258 258 256 253 252 253 255 258 262 262 262 262 260 260 260 259 259 260 259 258 260 262 263 263 263 265 264 262 263 263 263 264 262 259 257 258 258 259 257 254 250 246 243
270 265 264 265 264 261 260 262 263 261 258 253 250 249 249 249 249 246 245 247 253 257 260 262 262 259 253 245 242 241 241 241 245 250 253 252 247 241 238 237 242 249 253 256 257 255 253 251 250 252 256 257 258 260 261 260 260 259 259 259 257 255 255 256 258 258 259 263 264 264 263 261 260 262 261 257 254 253 254 256 254 249 245 243 238
278 270 265 263 263 261 259 259 260 261 260 258 255 252 250 250 248 246 244 244 244 246 250 254 255 251 245 242 241 240 239 239 240 242 245 247 245 242 237 233 235 241 245 250 255 256 255 251 246 246 250 254 256 259 260 261 259 258 257 257 255 252 249 249 251 253 255 259 262 263 262 259 258 260 258 254 252 251 250 253 252 249 246 242 235
285 279 271 265 263 262 260 260 261 260 257 255 253 251 250 249 248 247 246 243 241 242 245 247 248 247 243 242 242 240 237 235 233 233 237 243 247 248 246 241 239 240 243 247 252 255 254 251 245 242 244 248 253 256 257 259 259 258 256 255 253 249 245 243 245 249 253 257 259 259 259 256 255 255 253 250 250 248 246 247 248 247 245 241 234
288 286 279 271 266 264 262 261 262 264 263 258 251 248 248 247 246 245 244 242 240 242 245 245 245 245 244 245 247 246 241 235 232 233 237 244 249 252 253 251 249 249 250 251 251 252 251 249 244 239 239 241 246 249 252 255 257 256 255 253 250 246 242 240 243 248 254 258 258 257 256 253 251 253 250 248 249 249 246 244 243 243 243 240 235
289 289 286 279 272 268 266 264 263 266 271 270 261 253 250 247 245 244 243 241 239 240 243 244 244 245 245 245 246 246 245 243 240 238 239 242 247 251 253 253 253 253 254 253 252 251 251 251 247 243 240 240 242 246 249 251 253 254 252 248 243 241 239 240 244 250 254 256 255 254 253 251 250 250 248 245 247 248 246 243 241 241 241 238 232
286 287 286 283 278 273 271 269 267 266 269 270 269 267 263 254 246 242 240 240 238 236 238 240 242 243 245 245 243 244 247 248 245 242 240 240 243 247 250 251 252 252 250 250 250 251 251 251 250 247 243 241 241 243 246 247 249 251 250 244 239 238 239 242 246 249 250 250 251 251 251 250 249 248 245 244 247 249 246 243 240 238 237 234 230
283 283 282 282 279 276 274 273 272 271 270 269 270 272 272 267 256 244 238 237 237 235 234 235 237 239 240 242 244 245 246 246 245 243 242 241 243 245 247 248 250 251 250 249 247 246 246 247 248 248 245 242 241 242 243 244 246 247 246 240 237 237 240 242 243 243 243 244 245 247 248 248 248 246 243 243 248 250 248 245 240 237 236 233 230
285 282 280 279 277 276 274 272 272 272 274 273 272 272 273 275 273 260 244 237 234 234 235 233 233 235 236 236 238 242 245 245 244 241 239 239 241 243 246 247 249 251 254 255 252 247 244 244 245 246 245 244 243 242 242 241 241 242 240 237 235 237 238 238 237 237 239 241 242 244 246 247 247 245 243 242 245 248 248 246 243 239 236 234 232
287 285 282 279 276 273 270 269 270 270 270 271 273 273 273 276 279 277 265 248 235 230 232 232 230 231 233 232 231 234 239 241 241 240 238 237 238 241 244 247 250 252 254 257 257 251 242 237 237 238 238 238 239 241 242 242 241 240 238 235 234 236 236 235 235 236 237 237 239 241 244 245 245 244 243 242 242 244 247 247 246 242 237 235 234
286 285 283 281 278 274 269 266 265 267 267 267 268 270 271 274 276 277 276 266 244 230 230 233 231 228 230 232 231 232 236 238 238 238 238 237 238 239 241 243 245 248 251 254 257 253 243 235 233 233 234 233 234 236 238 240 240 240 238 236 235 236 234 233 234 235 235 234 235 237 238 240 241 240 240 241 242 244 246 248 246 242 237 234 233
283 284 283 282 280 277 273 268 264 263 265 267 267 267 268 271 273 271 271 272 260 241 236 239 240 234 231 231 231 232 234 236 237 237 238 239 240 241 242 243 244 246 249 252 255 255 247 238 232 230 230 231 232 233 234 235 237 238 238 238 237 235 234 232 233 234 234 232 231 232 231 232 234 234 235 238 242 244 246 247 246 243 239 235 233
277 279 281 281 280 278 276 273 269 264 263 264 268 270 268 267 270 270 268 269 268 256 245 243 244 240 235 233 232 232 234 237 239 239 239 241 242 244 245 246 245 246 248 250 253 253 249 242 235 231 229 230 232 233 234 235 236 237 236 236 236 235 234 233 233 234 233 231 229 229 229 228 227 229 232 237 242 245 248 247 245 242 239 235 232
271 272 274 276 277 277 276 275 273 271 268 266 267 269 269 268 267 268 266 264 263 260 255 252 252 252 246 238 233 233 235 237 239 240 240 241 241 243 245 246 244 243 244 247 249 248 245 241 236 233 231 231 232 234 235 236 238 238 237 236 235 234 233 232 231 231 232 231 229 229 229 228 227 228 232 236 240 244 248 248 245 242 239 237 235
271 270 271 272 273 274 274 273 273 273 273 271 268 266 268 268 267 266 265 263 261 260 260 261 264 266 262 250 239 235 235 236 238 240 241 241 240 241 242 244 243 241 240 241 242 241 238 235 233 232 231 231 231 232 234 235 237 239 239 238 236 235 233 231 229 229 230 231 231 231 231 232 231 229 230 234 237 239 244 248 247 244 242 240 238
273 271 271 271 270 271 271 271 271 271 272 272 271 267 265 265 266 265 264 262 262 261 260 262 264 265 264 258 249 241 236 233 234 239 242 242 242 242 242 242 242 239 237 235 235 233 230 230 229 228 228 228 229 230 231 233 235 238 240 240 239 238 237 235 232 230 229 230 230 230 232 234 234 230 229 232 235 238 242 244 244 242 241 239 237
272 271 270 270 268 267 268 268 269 270 271 271 271 269 266 263 263 263 263 262 261 259 259 261 264 265 263 260 258 254 246 236 232 233 238 241 243 244 244 244 242 239 234 231 229 228 226 225 225 226 227 228 228 228 229 230 232 234 237 238 239 238 238 237 235 233 231 231 230 229 231 234 235 234 232 232 233 237 239 241 240 240 239 236 235
272 271 270 269 267 265 265 266 266 267 269 270 270 270 269 266 264 263 263 262 259 256 255 255 257 260 262 260 259 261 257 244 234 231 233 237 241 243 245 244 243 240 236 231 228 226 226 224 223 224 226 228 229 230 229 229 229 230 231 233 235 235 235 235 234 234 234 234 233 232 232 233 235 236 236 235 234 234 237 239 239 238 236 234 234
272 272 271 270 267 264 262 263 263 263 265 267 269 268 267 266 266 265 264 263 263 262 261 259 257 257 261 261 257 256 256 251 241 234 233 234 236 239 241 243 243 241 240 236 232 228 227 227 225 223 224 227 230 233 233 232 232 233 233 233 234 234 234 234 234 233 233 233 233 233 234 235 235 236 237 237 236 234 235 237 238 237 236 235 232
270 270 271 271 270 267 263 261 259 259 260 262 264 265 264 264 265 265 265 266 267 265 261 261 260 256 254 255 255 252 251 252 250 245 240 237 236 236 236 238 240 241 240 239 236 232 230 230 228 225 224 226 229 232 234 235 234 235 236 237 238 237 235 234 234 232 231 231 231 233 235 236 237 238 238 238 237 235 233 234 235 236 236 235 233
265 267 268 269 270 269 266 262 258 256 257 258 260 263 265 265 265 265 265 267 267 264 258 256 257 257 257 258 259 257 253 253 254 253 249 246 245 242 236 233 236 239 240 239 237 234 231 230 231 229 227 227 228 229 232 234 235 235 236 238 239 240 238 236 236 235 233 232 231 232 233 236 239 240 241 240 238 236 234 233 234 235 236 236 235
260 262 264 265 267 268 267 264 258 255 254 255 257 260 264 265 266 266 266 266 267 267 264 259 258 261 264 267 268 266 261 257 256 256 254 254 259 257 243 232 230 234 238 239 238 237 234 232 232 231 230 229 229 229 230 232 234 236 237 237 238 240 241 240 239 238 237 235 234 233 233 235 237 240 242 243 242 239 236 234 234 234 235 236 237
257 257 260 262 264 265 265 263 257 252 250 252 255 258 261 264 265 265 265 265 266 267 267 265 263 264 266 266 266 266 265 262 260 262 261 257 260 266 255 236 227 228 233 237 238 239 237 235 233 233 233 232 232 232 232 232 232 234 236 237 237 238 239 241 242 241 240 239 237 236 235 235 236 238 241 244 245 243 240 236 235 235 235 235 236
254 254 257 260 262 264 265 263 257 251 247 248 252 256 259 262 264 264 263 263 264 265 265 264 264 264 264 263 262 262 264 264 262 263 264 261 259 264 264 246 229 225 228 233 237 239 239 238 235 234 234 234 234 234 234 234 234 236 237 238 239 239 239 240 241 241 241 241 240 239 238 237 237 237 239 241 243 244 243 239 237 236 237 237 237
252 250 254 258 260 262 263 261 258 254 249 248 250 255 259 261 262 263 262 261 261 262 263 262 261 261 261 262 261 260 261 263 262 260 262 264 263 263 266 258 238 229 228 231 234 237 239 239 237 236 235 235 235 236 236 235 236 238 240 241 241 240 241 241 241 241 241 241 242 241 240 239 239 239 240 240 241 243 244 243 241 239 238 239 239
Height
3150 3151 3151 3151 3151 3151 3151 3151 3151 3151 3151 3150 3150 3149 3148 3146 3145 3144 3142 3141 3139 3137 3136 3134 3133 3133 3132 3132 3132 3131 3131 3131 3130 3130 3130 3129 3129 3129 3128 3128 3127 3128 3128 3128 3128 3128 3128 3128 3128 3128 3128 3128 3128 3127 3127 3127 3127 3128 3128 3128 3128 3127 3127 3127 3126 3126 3126 3126 3126 3126 3126 3126 3125 3125 3124 3123 3122 3122 3121 3121 3120 3120 3119 3118 3117
3148 3149 3149 3149 3149 3149 3149 3149 3149 3149 3149 3149 3149 3148 3147 3146 3144 3143 3141 3140 3138 3137 3135 3134 3133 3132 3132 3131 3131 3131 3130 3130 3130 3129 3129 3129 3128 3128 3128 3128 3127 3127 3127 3127 3127 3127 3127 3127 3127 3127 3127 3127 3127 3126 3126 3126 3126 3127 3127 3127 3127 3127 3126 3126 3126 3126 3125 3125 3126 3126 3125 3125 3125 3124 3124 3123 3122 3122 3122 3121 3120 3120 3119 3118 3116
3146 3146 3146 3147 3147 3147 3147 3147 3147 3147 3148 3148 3147 3147 3146 3145 3143 3142 3140 3139 3137 3136 3135 3134 3133 3132 3131 3131 3130 3130 3130 3129 3129 3129 3129 3128 3128 3128 3127 3127 3127 3127 3127 3126 3126 3126 3126 3126 3126 3126 3126 3126 3126 3126 3126 3126 3126 3126 3126 3126 3126 3126 3126 3125 3125 3125 3125 3125 3125 3125 3125 3125 3125 3124 3123 3123 3122 3122 3122 3121 3120 3119 3119 3117 3116
3144 3144 3144 3144 3144 3144 3145 3145 3145 3146 3146 3146 3146 3145 3145 3144 3143 3141 3140 3139 3137 3136 3135 3134 3133 3132 3131 3130 3130 3129 3129 3128 3128 3128 3128 3128 3127 3127 3127 3127 3126 3126 3126 3126 3126 3126 3126 3126 3126 3126 3126 3125 3125 3125 3125 3125 3125 3125 3125 3125 3125 3125 3125 3125 3125 3125 3125 3125 3125 3125 3125 3125 3125 3124 3123 3123 3122 3122 3122 3121 3120 3119 3119 3117 3116
3143 3142 3142 3142 3142 3142 3143 3143 3143 3144 3144 3144 3144 3144 3143 3143 3142 3141 3140 3138 3137 3135 3134 3133 3132 3131 3130 3130 3129 3128 3128 3128 3127 3127 3127 3127 3127 3126 3126 3126 3126 3126 3125 3125 3125 3125 3125 3125 3125 3125 3125 3125 3125 3125 3125 3125 3125 3125 3125 3125 3125 3125 3125 3125 3125 3125 3125 3125 3125 3125 3125 3125 3125 3124 3123 3123 3122 3122 3121 3121 3120 3119 3118 3117 3116
3141 3141 3140 3140 3140 3140 3141 3141 3142 3142 3142 3142 3142 3142 3142 3142 3141 3140 3139 3138 3136 3135 3133 3132 3131 3131 3130 3129 3128 3128 3127 3127 3127 3126 3126 3126 3126 3126 3126 3125 3125 3125 3125 3125 3124 3125 3125 3125 3125 3125 3125 3124 3124 3125 3125 3125 3125 3125 3125 3125 3125 3125 3125 3125 3125 3125 3125 3125 3125 3125 3125 3125 3124 3124 3123 3123 3122 3122 3121 3121 3120 3119 3119 3117 3116
3139 3138 3138 3138 3138 3139 3139 3139 3140 3140 3140 3140 3141 3141 3141 3140 3140 3139 3138 3137 3135 3134 3132 3131 3130 3130 3129 3128 3128 3127 3127 3126 3126 3126 3125 3125 3125 3125 3125 3125 3125 3124 3124 3124 3124 3124 3124 3124 3124 3124 3124 3124 3124 3124 3124 3124 3124 3125 3125 3125 3125 3125 3125 3125 3125 3125 3125 3125 3125 3125 3125 3125 3124 3124 3123 3123 3122 3122 3121 3121 3120 3120 3119 3118 3117
3137 3136 3136 3136 3136 3137 3137 3137 3138 3138 3138 3138 3139 3139 3139 3139 3138 3138 3137 3136 3134 3133 3132 3130 3129 3129 3128 3128 3127 3126 3126 3126 3125 3125 3125 3125 3124 3124 3124 3124 3124 3124 3124 3124 3124 3124 3124 3124 3124 3124 3124 3124 3124 3124 3124 3124 3124 3125 3125 3125 3125 3125 3125 3125 3125 3125 3125 3125 3125 3125 3125 3125 3124 3124 3123 3123 3123 3122 3121 3121 3120 3120 3119 3118 3117
3135 3134 3134 3134 3135 3135 3136 3136 3136 3136 3137 3137 3137 3138 3137 3137 3137 3137 3136 3135 3134 3132 3131 3130 3129 3128 3128 3127 3126 3126 3125 3125 3125 3124 3124 3124 3124 3123 3123 3123 3124 3123 3123 3123 3123 3123 3124 3124 3124 3124 3124 3124 3124 3124 3124 3124 3124 3125 3125 3125 3125 3125 3125 3125 3125 3126 3126 3125 3125 3125 3125 3124 3124 3124 3124 3123 3123 3122 3122 3121 3121 3120 3120 3119 3118
3133 3133 3133 3133 3133 3134 3134 3134 3134 3135 3135 3135 3135 3136 3136 3136 3136 3135 3135 3134 3133 3132 3131 3130 3129 3128 3127 3127 3126 3125 3125 3124 3124 3123 3123 3123 3123 3123 3123 3123 3123 3123 3123 3123 3123 3123 3123 3123 3124 3124 3124 3124 3124 3124 3124 3124 3124 3125 3125 3125 3125 3125 3125 3125 3125 3125 3125 3125 3125 3125 3125 3125 3124 3124 3124 3123 3123 3122 3122 3121 3121 3121 3120 3119 3119
3131 3131 3131 3131 3132 3132 3132 3132 3132 3133 3133 3134 3134 3134 3134 3134 3134 3134 3134 3133 3132 3131 3130 3129 3128 3127 3127 3126 3126 3125 3124 3124 3123 3123 3123 3122 3122 3122 3122 3122 3123 3123 3123 3123 3123 3123 3123 3123 3123 3124 3124 3124 3124 3124 3124 3124 3124 3124 3125 3125 3125 3125 3125 3125 3125 3125 3125 3125 3125 3125 3125 3124 3124 3124 3124 3124 3123 3123 3122 3122 3121 3121 3120 3120 3119
3129 3129 3130 3130 3130 3130 3130 3131 3131 3131 3132 3132 3132 3132 3132 3132 3132 3132 3132 3132 3131 3130 3129 3128 3128 3127 3126 3126 3125 3124 3124 3123 3123 3122 3122 3122 3122 3122 3122 3122 3122 3122 3122 3122 3123 3123 3123 3123 3123 3124 3124 3124 3124 3124 3124 3124 3124 3124 3125 3125 3125 3125 3125 3125 3125 3125 3125 3125 3125 3124 3124 3124 3124 3124 3124 3124 3123 3123 3122 3122 3122 3121 3121 3120 3120
3127 3127 3128 3128 3128 3128 3128 3129 3129 3130 3130 3130 3130 3130 3130 3130 3130 3130 3130 3130 3129 3129 3128 3127 3127 3126 3126 3125 3125 3124 3123 3123 3122 3122 3121 3121 3121 3121 3121 3121 3121 3121 3122 3122 3122 3122 3122 3123 3123 3123 3124 3124 3124 3124 3124 3124 3124 3124 3125 3125 3125 3125 3125 3125 3125 3125 3124 3124 3124 3124 3124 3124 3124 3124 3124 3123 3123 3123 3122 3122 3122 3121 3121 3121 3120
3125 3125 3126 3126 3126 3126 3127 3127 3127 3128 3128 3128 3128 3128 3128 3129 3128 3129 3129 3128 3128 3128 3127 3127 3126 3126 3125 3125 3124 3123 3123 3122 3122 3121 3121 3120 3120 3120 3120 3120 3121 3121 3121 3121 3121 3121 3122 3122 3123 3123 3123 3123 3123 3124 3124 3124 3124 3124 3124 3125 3125 3125 3125 3125 3125 3124 3124 3124 3124 3124 3124 3124 3123 3123 3123 3123 3123 3123 3123 3122 3122 3121 3121 3121 3120
3124 3124 3124 3124 3124 3124 3125 3125 3125 3125 3125 3125 3126 3126 3126 3127 3127 3127 3127 3127 3127 3126 3126 3126 3125 3125 3124 3124 3124 3123 3122 3121 3121 3121 3120 3120 3119 3119 3119 3119 3120 3120 3120 3120 3120 3121 3121 3122 3122 3122 3123 3123 3123 3123 3123 3124 3124 3124 3124 3124 3124 3124 3124 3124 3124 3124 3124 3124 3124 3124 3124 3123 3123 3123 3123 3123 3123 3123 3123 3122 3122 3122 3121 3121 3120
3123 3123 3123 3123 3122 3122 3122 3123 3123 3123 3123 3123 3123 3124 3124 3124 3124 3125 3125 3125 3125 3125 3125 3125 3124 3124 3123 3123 3123 3122 3121 3121 3120 3120 3119 3119 3119 3119 3118 3118 3119 3119 3120 3120 3120 3120 3120 3121 3121 3122 3122 3122 3122 3123 3123 3123 3123 3124 3124 3124 3123 3124 3124 3124 3124 3124 3124 3124 3124 3124 3123 3123 3123 3123 3123 3123 3123 3123 3122 3122 3122 3122 3122 3121 3120
3121 3121 3121 3121 3120 3120 3120 3120 3120 3120 3120 3120 3120 3121 3121 3122 3122 3122 3123 3123 3124 3124 3124 3123 3123 3123 3122 3122 3122 3121 3121 3120 3119 3119 3119 3118 3118 3118 3118 3117 3118 3118 3119 3119 3119 3119 3120 3120 3121 3121 3121 3121 3122 3122 3122 3123 3123 3123 3123 3123 3123 3123 3123 3123 3124 3124 3124 3124 3124 3123 3123 3123 3123 3122 3122 3122 3122 3122 3122 3122 3122 3122 3121 3121 3121
3119 3119 3119 3118 3118 3117 3117 3117 3117 3117 3117 3117 3117 3117 3117 3117 3118 3119 3120 3121 3122 3122 3122 3122 3122 3121 3121 3120 3120 3120 3120 3119 3118 3118 3118 3117 3117 3117 3117 3117 3117 3117 3117 3118 3118 3118 3119 3119 3120 3120 3120 3121 3121 3121 3122 3122 3122 3122 3122 3122 3122 3122 3122 3123 3123 3123 3123 3123 3123 3123 3123 3123 3122 3122 3122 3122 3122 3122 3122 3121 3121 3121 3121 3121 3121
3117 3117 3116 3116 3115 3115 3115 3114 3114 3114 3114 3114 3113 3112 3113 3114 3114 3115 3117 3118 3119 3119 3120 3120 3120 3120 3119 3119 3119 3118 3118 3118 3117 3117 3116 3116 3116 3116 3116 3116 3116 3116 3116 3117 3117 3117 3117 3118 3118 3119 3119 3120 3120 3121 3121 3121 3121 3121 3121 3121 3121 3121 3122 3122 3122 3123 3123 3123 3123 3123 3122 3122 3122 3122 3122 3122 3122 3122 3121 3121 3121 3121 3121 3121 3121
3114 3114 3114 3113 3113 3113 3112 3112 3112 3112 3112 3112 3111 3110 3111 3112 3113 3113 3115 3116 3117 3117 3117 3118 3118 3118 3117 3117 3117 3117 3116 3116 3116 3115 3115 3115 3115 3115 3114 3114 3115 3115 3115 3115 3116 3116 3116 3117 3117 3118 3118 3119 3119 3120 3120 3120 3120 3120 3121 3121 3120 3121 3121 3121 3122 3122 3122 3122 3122 3122 3122 3122 3122 3122 3121 3121 3121 3121 3121 3121 3121 3121 3121 3121 3121
3111 3111 3111 3110 3110 3110 3110 3110 3110 3109 3109 3109 3109 3109 3109 3110 3110 3111 3112 3113 3114 3115 3115 3116 3116 3115 3115 3115 3115 3115 3115 3114 3114 3114 3114 3113 3113 3113 3113 3113 3113 3114 3114 3114 3114 3115 3115 3115 3116 3116 3117 3117 3118 3118 3119 3119 3119 3120 3120 3120 3120 3120 3120 3121 3121 3121 3121 3121 3121 3121 3121 3121 3121 3121 3121 3121 3121 3121 3121 3121 3121 3121 3121 3121 3121
3108 3107 3107 3107 3107 3107 3107 3107 3107 3107 3107 3107 3107 3107 3108 3107 3108 3109 3109 3110 3111 3112 3112 3113 3113 3113 3112 3112 3112 3113 3113 3113 3112 3112 3112 3112 3111 3111 3111 3111 3112 3112 3112 3113 3113 3113 3113 3114 3114 3115 3115 3116 3116 3117 3118 3118 3119 3119 3119 3119 3119 3119 3119 3120 3120 3121 3121 3120 3120 3120 3121 3120 3121 3121 3121 3121 3120 3120 3120 3120 3120 3120 3121 3121 3121
3105 3105 3104 3104 3104 3104 3104 3104 3104 3104 3104 3104 3105 3105 3105 3105 3106 3106 3106 3106 3107 3107 3109 3110 3110 3110 3110 3110 3110 3110 3110 3111 3111 3110 3110 3110 3110 3109 3109 3109 3110 3110 3110 3111 3111 3112 3112 3112 3113 3113 3114 3114 3115 3115 3116 3117 3117 3118 3118 3118 3118 3118 3119 3119 3119 3120 3120 3120 3120 3120 3120 3120 3120 3120 3120 3120 3120 3120 3120 3120 3120 3120 3120 3120 3120
3103 3102 3102 3101 3101 3101 3100 3101 3101 3101 3101 3101 3101 3102 3103 3103 3103 3103 3103 3103 3102 3102 3104 3106 3106 3107 3108 3108 3108 3108 3108 3108 3108 3108 3108 3108 3108 3108 3107 3107 3108 3108 3108 3109 3109 3110 3110 3111 3111 3112 3112 3112 3113 3114 3114 3115 3116 3116 3116 3117 3117 3117 3117 3118 3118 3119 3119 3119 3119 3119 3119 3119 3119 3119 3119 3119 3119 3120 3120 3120 3120 3120 3120 3120 3120
3099 3099 3099 3098 3098 3097 3097 3097 3097 3097 3097 3097 3098 3099 3099 3099 3099 3098 3099 3100 3099 3099 3100 3101 3102 3103 3104 3105 3105 3105 3105 3105 3106 3106 3106 3106 3105 3105 3105 3105 3106 3106 3106 3106 3107 3108 3108 3109 3109 3110 3110 3111 3111 3112 3112 3113 3114 3114 3115 3115 3115 3116 3116 3116 3117 3118 3118 3118 3118 3118 3118 3118 3118 3118 3119 3119 3119 3119 3119 3119 3119 3119 3119 3119 3120
3095 3095 3095 3094 3094 3094 3094 3093 3093 3093 3093 3093 3094 3095 3095 3095 3095 3094 3095 3096 3097 3097 3097 3097 3098 3100 3101 3101 3102 3103 3102 3102 3103 3103 3104 3103 3103 3103 3103 3103 3103 3103 3103 3104 3105 3105 3106 3107 3107 3108 3108 3109 3110 3110 3111 3111 3112 3112 3113 3113 3114 3114 3114 3115 3116 3116 3117 3117 3117 3117 3117 3117 3117 3118 3118 3118 3118 3118 3118 3119 3119 3119 3119 3119 3119
3090 3090 3090 3090 3090 3090 3090 3090 3090 3089 3089 3089 3089 3090 3090 3090 3090 3090 3092 3093 3094 3094 3094 3094 3095 3097 3097 3098 3099 3099 3099 3099 3100 3100 3101 3101 3101 3101 3101 3101 3101 3101 3101 3101 3102 3102 3103 3104 3105 3106 3106 3107 3108 3108 3109 3109 3110 3110 3111 3111 3112 3112 3113 3113 3114 3115 3115 3115 3116 3116 3116 3116 3116 3116 3117 3117 3117 3117 3118 3118 3118 3118 3118 3118 3119
3085 3085 3085 3086 3086 3086 3086 3086 3086 3086 3086 3085 3085 3085 3086 3086 3086 3086 3087 3088 3089 3090 3091 3091 3092 3093 3094 3095 3095 3095 3095 3096 3097 3098 3099 3099 3098 3098 3098 3098 3098 3098 3098 3098 3099 3100 3101 3102 3103 3103 3104 3105 3105 3106 3107 3107 3108 3108 3109 3109 3110 3111 3111 3111 3112 3113 3113 3114 3114 3114 3115 3115 3115 3115 3115 3116 3116 3116 3117 3117 3117 3117 3118 3118 3118
3080 3080 3080 3080 3081 3081 3082 3082 3082 3081 3081 3081 3082 3082 3082 3082 3082 3083 3083 3084 3084 3085 3086 3086 3088 3089 3090 3090 3090 3090 3090 3092 3093 3095 3095 3095 3095 3095 3095 3095 3096 3096 3096 3095 3096 3097 3098 3099 3100 3101 3101 3102 3103 3104 3105 3105 3106 3106 3107 3107 3108 3109 3109 3110 3110 3111 3111 3112 3112 3112 3113 3113 3114 3114 3114 3114 3115 3115 3116 3116 3116 3116 3117 3117 3117
3074 3075 3075 3075 3075 3076 3076 3077 3077 3076 3076 3076 3077 3078 3078 3078 3079 3079 3080 3080 3081 3081 3081 3082 3083 3084 3084 3085 3085 3086 3087 3088 3089 3090 3090 3091 3091 3092 3093 3093 3093 3093 3093 3093 3093 3094 3095 3096 3097 3098 3099 3099 3100 3101 3102 3103 3103 3104 3105 3105 3106 3107 3107 3108 3108 3109 3109 3110 3110 3111 3111 3112 3112 3113 3113 3113 3113 3114 3115 3115 3115 3116 3116 3116 3117
3069 3069 3070 3069 3070 3070 3071 3072 3071 3070 3070 3072 3073 3073 3073 3074 3074 3075 3076 3077 3078 3078 3079 3079 3079 3079 3080 3081 3082 3083 3084 3085 3085 3085 3086 3087 3088 3089 3090 3091 3091 3091 3091 3091 3091 3092 3093 3094 3095 3095 3096 3097 3098 3098 3099 3100 3101 3102 3103 3103 3104 3104 3105 3106 3106 3107 3107 3108 3108 3109 3109 3110 3111 3111 3112 3112 3112 3113 3113 3114 3114 3115 3115 3116 3116
3065 3065 3065 3064 3064 3064 3065 3066 3066 3065 3065 3067 3067 3067 3068 3069 3070 3071 3072 3073 3073 3074 3075 3075 3075 3075 3076 3077 3078 3079 3081 3081 3082 3082 3083 3084 3085 3086 3087 3088 3088 3088 3088 3088 3089 3090 3090 3091 3092 3093 3093 3094 3095 3096 3097 3098 3098 3099 3100 3101 3102 3102 3103 3103 3104 3105 3105 3106 3106 3107 3107 3108 3109 3110 3110 3110 3111 3111 3112 3113 3113 3114 3114 3115 3115
3061 3061 3060 3060 3060 3059 3059 3060 3060 3060 3061 3061 3061 3061 3062 3064 3065 3066 3067 3067 3068 3069 3070 3071 3072 3072 3073 3074 3075 3076 3077 3077 3079 3079 3080 3080 3081 3082 3083 3084 3085 3085 3085 3085 3086 3087 3088 3089 3090 3090 3091 3092 3092 3093 3094 3095 3096 3097 3098 3099 3099 3100 3100 3101 3102 3103 3103 3104 3104 3105 3106 3106 3107 3108 3109 3109 3109 3110 3111 3111 3112 3113 3113 3114 3114
3057 3056 3056 3055 3055 3055 3055 3054 3054 3055 3055 3056 3056 3056 3057 3057 3059 3061 3061 3062 3063 3064 3066 3067 3068 3069 3069 3070 3071 3072 3072 3073 3074 3076 3076 3077 3077 3078 3078 3079 3080 3081 3082 3082 3083 3085 3086 3087 3088 3088 3089 3089 3090 3090 3091 3092 3093 3094 3095 3096 3097 3097 3098 3099 3100 3101 3101 3102 3103 3103 3104 3105 3106 3106 3107 3108 3108 3108 3109 3110 3111 3111 3112 3112 3113
3052 3052 3052 3051 3050 3050 3050 3050 3050 3050 3050 3051 3051 3052 3052 3051 3053 3055 3056 3057 3058 3060 3061 3063 3064 3065 3066 3067 3067 3068 3068 3069 3070 3071 3072 3073 3073 3073 3073 3074 3076 3077 3079 3080 3081 3083 3084 3085 3085 3086 3087 3087 3087 3088 3089 3090 3091 3092 3093 3094 3094 3095 3096 3098 3098 3099 3099 3100 3101 3101 3102 3103 3104 3105 3106 3106 3107 3107 3108 3108 3109 3110 3110 3111 3112
3048 3048 3047 3047 3046 3046 3046 3045 3045 3045 3046 3046 3046 3047 3047 3047 3048 3050 3051 3051 3052 3054 3056 3057 3059 3060 3061 3062 3063 3064 3064 3065 3066 3066 3067 3068 3067 3067 3068 3070 3072 3074 3076 3077 3078 3080 3081 3082 3083 3083 3084 3084 3085 3086 3086 3087 3088 3089 3090 3091 3092 3093 3094 3095 3096 3097 3098 3098 3099 3100 3100 3101 3102 3103 3104 3104 3105 3106 3106 3107 3107 3108 3109 3110 3110
3044 3044 3043 3043 3042 3041 3041 3041 3041 3041 3041 3042 3042 3042 3043 3043 3043 3044 3045 3046 3047 3048 3048 3050 3052 3054 3056 3058 3059 3060 3060 3061 3061 3061 3062 3062 3062 3062 3064 3066 3068 3070 3072 3074 3075 3076 3077 3078 3079 3080 3081 3081 3082 3083 3084 3085 3085 3086 3087 3088 3089 3090 3092 3093 3094 3095 3096 3097 3097 3098 3099 3100 3100 3101 3102 3103 3103 3104 3105 3105 3106 3107 3107 3108 3109
3040 3039 3039 3038 3038 3037 3037 3037 3037 3037 3037 3037 3037 3038 3038 3039 3039 3040 3040 3041 3042 3043 3043 3044 3046 3048 3051 3053 3055 3055 3055 3055 3056 3056 3057 3057 3058 3059 3060 3062 3064 3067 3069 3071 3072 3073 3074 3075 3076 3077 3078 3078 3079 3080 3081 3082 3083 3084 3084 3085 3086 3088 3089 3090 3091 3092 3094 3095 3096 3097 3097 3098 3099 3099 3100 3101 3102 3102 3103 3104 3104 3105 3106 3107 3107
3035 3034 3034 3034 3034 3033 3033 3032 3032 3033 3033 3033 3033 3033 3034 3034 3035 3036 3036 3036 3037 3038 3039 3039 3040 3043 3045 3047 3048 3049 3050 3050 3051 3052 3053 3053 3054 3056 3057 3058 3060 3063 3065 3067 3068 3069 3071 3072 3073 3074 3074 3075 3076 3077 3078 3079 3080 3081 3081 3082 3083 3085 3086 3087 3089 3090 3092 3093 3094 3095 3095 3096 3097 3098 3098 3099 3100 3101 3102 3102 3103 3104 3104 3105 3106
3029 3029 3029 3029 3029 3029 3028 3028 3028 3028 3028 3028 3029 3029 3029 3030 3030 3031 3032 3032 3033 3034 3034 3034 3036 3038 3039 3040 3042 3044 3045 3046 3047 3047 3048 3049 3050 3051 3052 3054 3056 3059 3061 3063 3065 3066 3067 3068 3069 3070 3071 3072 3073 3074 3075 3076 3077 3077 3078 3079 3080 3081 3083 3085 3086 3088 3089 3090 3091 3092 3093 3094 3095 3096 3097 3097 3098 3099 3100 3101 3101 3102 3103 3103 3104
3023 3023 3023 3023 3024 3024 3024 3023 3023 3023 3023 3024 3024 3024 3025 3025 3026 3026 3027 3028 3028 3029 3030 3030 3031 3032 3034 3035 3037 3038 3039 3041 3042 3042 3043 3044 3045 3046 3048 3049 3052 3054 3057 3059 3061 3062 3064 3065 3065 3067 3068 3069 3070 3071 3072 3072 3073 3074 3075 3076 3078 3079 3080 3081 3083 3085 3086 3087 3089 3090 3091 3092 3093 3094 3095 3095 3096 3097 3098 3099 3100 3100 3101 3102 3103
3017 3018 3017 3018 3018 3018 3018 3018 3019 3019 3019 3019 3020 3020 3020 3020 3021 3021 3022 3023 3024 3024 3025 3025 3026 3027 3028 3029 3030 3031 3032 3034 3036 3037 3038 3039 3040 3042 3043 3045 3047 3049 3052 3054 3056 3058 3060 3061 3062 3063 3064 3065 3066 3067 3068 3069 3070 3071 3073 3074 3075 3076 3077 3078 3080 3082 3083 3084 3086 3087 3088 3090 3091 3092 3093 3093 3094 3095 3096 3097 3098 3099 3099 3100 3101
3011 3012 3012 3012 3013 3013 3013 3013 3013 3014 3014 3014 3015 3015 3015 3015 3016 3016 3017 3018 3019 3019 3020 3021 3022 3022 3022 3023 3024 3024 3025 3027 3028 3030 3033 3034 3035 3037 3039 3041 3043 3045 3047 3049 3051 3053 3055 3056 3057 3059 3060 3061 3062 3063 3064 3065 3067 3068 3069 3070 3072 3073 3074 3076 3077 3078 3080 3081 3083 3084 3085 3087 3088 3089 3090 3091 3092 3093 3094 3095 3096 3097 3098 3098 3099
3004 3005 3006 3006 3007 3008 3008 3008 3008 3009 3009 3009 3010 3010 3010 3011 3011 3011 3012 3013 3013 3013 3014 3015 3016 3017 3017 3017 3018 3018 3019 3020 3021 3023 3026 3029 3030 3032 3034 3036 3038 3040 3042 3044 3045 3047 3049 3051 3053 3054 3056 3057 3058 3059 3060 3061 3063 3064 3065 3067 3068 3069 3071 3072 3074 3075 3077 3078 3080 3081 3082 3083 3085 3086 3087 3088 3090 3091 3092 3093 3094 3095 3096 3097 3097
2997 2998 2998 2999 3001 3002 3002 3003 3003 3003 3004 3004 3005 3005 3006 3006 3006 3007 3007 3007 3007 3008 3008 3009 3010 3011 3012 3012 3013 3013 3014 3015 3016 3017 3020 3022 3024 3026 3028 3031 3033 3034 3036 3039 3040 3042 3044 3046 3048 3050 3051 3052 3054 3055 3056 3058 3059 3060 3061 3063 3064 3066 3067 3069 3071 3072 3073 3075 3076 3077 3078 3080 3081 3083 3084 3085 3087 3088 3089 3090 3092 3093 3094 3095 3096
2991 2991 2992 2992 2994 2995 2996 2997 2998 2998 2999 2999 3000 3000 3001 3001 3002 3002 3002 3003 3003 3003 3004 3005 3006 3006 3007 3007 3008 3008 3009 3010 3011 3013 3014 3016 3018 3020 3022 3024 3026 3028 3031 3033 3035 3037 3039 3041 3043 3045 3046 3048 3049 3051 3052 3053 3055 3056 3058 3059 3060 3062 3064 3065 3067 3068 3069 3070 3072 3073 3075 3076 3077 3079 3080 3082 3083 3084 3086 3087 3088 3090 3091 3093 3094
2985 2985 2986 2986 2987 2988 2990 2991 2992 2993 2993 2994 2994 2995 2995 2996 2997 2997 2998 2998 2999 2999 2999 3000 3001 3000 3000 3001 3003 3004 3005 3005 3006 3007 3009 3010 3012 3013 3015 3017 3020 3023 3025 3027 3029 3031 3033 3036 3037 3040 3042 3043 3045 3046 3048 3049 3050 3052 3053 3055 3057 3058 3060 3061 3062 3063 3065 3066 3068 3069 3071 3072 3073 3075 3076 3077 3079 3080 3082 3083 3085 3086 3088 3089 3091
2978 2979 2979 2980 2980 2982 2983 2984 2986 2987 2988 2989 2989 2990 2991 2992 2993 2993 2993 2994 2994 2994 2995 2996 2996 2995 2995 2997 2998 3000 3001 3001 3002 3002 3003 3005 3005 3006 3007 3010 3014 3017 3019 3021 3023 3025 3027 3030 3032 3034 3036 3038 3040 3041 3043 3044 3045 3047 3048 3050 3052 3054 3056 3057 3058 3060 3061 3062 3063 3065 3066 3068 3069 3070 3072 3073 3075 3076 3078 3080 3081 3083 3084 3086 3087
2971 2972 2973 2974 2974 2976 2977 2978 2979 2981 2982 2983 2984 2985 2986 2987 2988 2989 2989 2990 2990 2990 2991 2991 2991 2992 2992 2993 2994 2995 2995 2996 2997 2998 2999 3000 3000 3000 3001 3003 3006 3010 3012 3014 3017 3019 3022 3024 3026 3029 3031 3033 3035 3036 3038 3040 3041 3042 3043 3045 3047 3049 3051 3052 3054 3055 3057 3058 3059 3060 3062 3063 3065 3066 3067 3069 3070 3072 3074 3076 3077 3079 3080 3081 3083
2964 2966 2967 2968 2969 2970 2971 2972 2974 2975 2977 2978 2980 2981 2982 2982 2983 2984 2985 2985 2985 2986 2986 2987 2987 2988 2989 2990 2990 2991 2991 2991 2992 2994 2995 2995 2995 2996 2996 2997 2999 3003 3006 3009 3011 3014 3016 3018 3021 3023 3025 3027 3029 3031 3033 3035 3037 3038 3039 3041 3042 3044 3045 3047 3049 3050 3052 3053 3054 3056 3057 3058 3060 3061 3063 3064 3066 3067 3069 3071 3073 3074 3076 3077 3079
2958 2960 2961 2962 2963 2965 2966 2968 2969 2970 2972 2973 2975 2976 2977 2978 2979 2979 2980 2980 2981 2981 2982 2982 2983 2983 2985 2986 2987 2987 2987 2988 2988 2990 2990 2990 2991 2992 2993 2993 2995 2998 3001 3003 3006 3008 3010 3013 3015 3017 3019 3021 3023 3025 3027 3030 3032 3034 3035 3036 3038 3039 3040 3042 3043 3045 3047 3048 3049 3051 3052 3054 3055 3057 3058 3060 3061 3062 3065 3067 3068 3070 3072 3073 3075